Regional Weather Roundup
Issued by NWS

Home | Current Version | Previous Version | Text Only | Print | Product List | Glossary Off
Versions: 1 2 3 4 5 6 7 8 9 10 11 12 13 14 15 16 17 18 19 20 21 22 23 24 25 26 27 28 29 30 31 32 33 34 35 36 37 38 39 40 41 42 43 44 45 46 47 48 49 50

000
ASUS45 KPSR 182000
RWRAZ

PRELIMINARY ARIZONA REGIONAL HOURLY WEATHER ROUNDUP
NATIONAL WEATHER SERVICE PHOENIX AZ
100 PM MST THU SEP 18 2014

NOTE: FAIR INDICATES FEW OR NO CLOUDS BELOW 12,000 FEET WITH NO
SIGNIFICANT WEATHER AND/OR OBSTRUCTIONS TO VISIBILITY.

AZZ001>003-036-182100-
NORTHWEST ARIZONA

CITY           SKY/WX    TMP DP  RH WIND       PRES   REMARKS
KINGMAN        MOSUNNY   88  57  34 W7G21     29.89F
$$

AZZ004>008-015-016-018-182100-
NORTH CENTRAL ARIZONA

CITY           SKY/WX    TMP DP  RH WIND       PRES   REMARKS
GRAND CANYON   PTSUNNY   73  49  42 S3        30.10F
PRESCOTT       MOSUNNY   80  52  37 CALM      30.00F
FLAGSTAFF      MOSUNNY   72  49  44 E8        30.13F
PAGE           SUNNY     87  47  24 N9        29.92F
$$

AZZ009>014-017-182100-
NORTHEAST ARIZONA

CITY           SKY/WX    TMP DP  RH WIND       PRES   REMARKS
WINSLOW        NOT AVBL
SAINT JOHNS    CLOUDY    74  54  49 S5        30.02F
WINDOW ROCK    CLOUDY    75  48  38 VRB6      30.11F
$$

AZZ023-182100-
GREATER PHOENIX AREA

CITY           SKY/WX    TMP DP  RH WIND       PRES   REMARKS
PHOENIX        MOSUNNY   92  62  36 CALM      29.74F
GLENDALE       MOSUNNY   91  64  40 SE6       29.77F
DEER VALLEY    SUNNY     89  61  38 CALM      29.76F
SCOTTSDALE     SUNNY     89  62  40 CALM      29.78F
MESA-FALCON    MOSUNNY   90  63  40 CALM      29.76F
CHANDLER       MOSUNNY   90  63  40 VRB6      29.77F
$$

AZZ027-028-182100-
SOUTHWEST MARICOPA COUNTY AND PINAL COUNTY

CITY           SKY/WX    TMP DP  RH WIND       PRES   REMARKS
CASA GRANDE    CLOUDY    88  63  42 CALM      29.79F
GILA BEND      PTCLDY    95  63  34 N7        29.76F
$$

AZZ503-504-507>509-182100-
SOUTHEAST ARIZONA

CITY           SKY/WX    TMP DP  RH WIND       PRES   REMARKS
TUCSON         CLOUDY    80  65  59 VRB3      29.87F
RYAN FIELD       N/A     81  66  61 S5        29.86F
NOGALES        CLOUDY    76  64  66 NW5       29.93F
SAFFORD        CLOUDY    72  64  76 E7        29.91F
$$

AZZ020-021-025-026-031-182100-
SOUTHWEST ARIZONA

CITY           SKY/WX    TMP DP  RH WIND       PRES   REMARKS
YUMA           NOT AVBL
$$

CAZ031-033-041-043-047-048-061-182100-
SOUTHERN CALIFORNIA

CITY           SKY/WX    TMP DP  RH WIND       PRES   REMARKS
DOWNTOWN L.A.  SUNNY     78  62  57 W8        29.86F
L.A. AIRPORT   MOSUNNY   75  64  68 SW9       29.88F
SAN DIEGO      MOSUNNY   78  65  63 NW13      29.88F
BURBANK        SUNNY     80  60  50 S10G16    29.85F
ONTARIO        MOSUNNY   82  58  43 W9G20     29.87F
RIVERSIDE      SUNNY     83  58  42 MISG      29.86F
PALM SPRINGS   SUNNY    101  49  17 VRB5      29.71F
EL CENTRO NAS  MOSUNNY  106  39  10 VRB7      29.66F HX 100
IMPERIAL       SUNNY    103  42  12 VRB5G16   29.66F
BLYTHE         SUNNY    100  66  32 S12G21    29.68F HX 104
$$

NVZ020-UTZ003-182100-
SOUTHERN NEVADA-UTAH

CITY           SKY/WX    TMP DP  RH WIND       PRES   REMARKS
LAS VEGAS      NOT AVBL
SALT LAKE CITY MOSUNNY   89  44  20 SE22G30   29.85F
$$

NMZ009-TXZ055-182100-
NEW MEXICO-WEST TEXAS

CITY           SKY/WX    TMP DP  RH WIND       PRES   REMARKS
ALBUQUERQUE    MOSUNNY   78  50  37 W8        30.02F
EL PASO        CLOUDY    71  66  84 N10       29.96F
$$


........................KEY........................
SKY/WX - SKY CONDITION/WEATHER
TMP    - TEMPERATURE IN FAHRENHEIT
DP     - DEW POINT IN FAHRENHEIT
RH     - RELATIVE HUMIDITY IN PERCENT
WIND   - DIRECTION AND SPEED IN MILES PER HOUR (MPH)
VRB    - VARIABLE WIND DIRECTION
PRES   - MEAN SEA LEVEL PRESSURE IN INCHES OF MERCURY
         F - FALLING PRESSURE   R - RISING PRESSURE
         S - STEADY PRESSURE
VSB    - VISIBILITY IN MILES
HX     - HEAT INDEX IN FAHRENHEIT
WCI    - WIND CHILL INDEX IN FAHRENHEIT
TC     - TEMPERATURE IN CELSIUS WHICH IS ALSO KNOWN AS
         TEMPERATURE IN CENTIGRADE
AFB    - AIR FORCE BASE
         LUKE AFB IS LUKE AIR FORCE BASE
         DAVIS-MONTHAN IS DAVIS-MONTHAN AIR FORCE BASE
NAS    - NAVAL AIR STATION
         EL CENTRO NAS IS EL CENTRO NAVAL AIR STATION
N/A    - NOT AVAILABLE


USA.gov is the U.S. government's official web portal to all federal, state and local government web resources and services.